Gold Country Challenge - Loft Flight

Station: Loft Fly - T Race

Distance: 0.3 Miles    

Release: 13-Sep-2017 07:00

Weather Release:    Arrival:

Wind at Release:     Wind at Arrival:

Temp at Release: °    Temp at Arrival: °

Lofts: 85

Birds: 307

Clocked: 308

60 Miles Friday or Sunday. Birds on Canker Treatement with Ronidazole
Drops Pos Breeder Pigeon Name Color Sex Ent Arrival Speed To Win Eligible Champ
1 Joe Sanford - CA 4372-AU17-JEDD OPAL H 1 08:15:41.30 6.976 00:00:00 Lost
2 Goshentown Lofts - TN 3468-AU17-VITA DC H 1 08:16:06.30 6.938 00:00:25 Yes
3 Valhalla Loft - CA 0406-AU17-WSJ DC H 1 08:16:20.70 6.916 00:00:39 Yes
4 Skychargers - CA 0517-AU17-CORO BBPD H 1 08:16:30.80 6.901 00:00:49 Yes
5 King Rps Loft - CA 2544-AU17-SFR €€ BOOMERANG 2 €€ BC H 1 08:16:52.80 6.868 00:01:11 Yes
6 Jactions Loft - CA 15967-AU17-AA BB H 1 08:17:02.60 6.853 00:01:22 Yes
7 Genesis Syndicate Loft - AZ 0358-AU17-GEN BC H 1 08:17:11.00 6.841 00:01:30 Yes
8 Flying W - CA 0506-AU17-AUB SLT H 1 08:17:46.10 6.789 00:02:05 Lost
9 Alpha & Omega Lofts - NV 17054-AU17-SNV BLK H 1 08:17:57.60 6.773 00:02:16 Yes
10 Skychargers - CA 0010-AU17-CORO BC H 2 08:18:12.30 6.751 00:02:31 Yes
11 Loizzi - Sikora - CA 3767-AU17-FVC BB H 1 08:18:20.20 6.740 00:02:39 Yes
12 Fog City Loft - CA 2328-AU17-FCL BB H 1 08:18:25.80 6.732 00:02:45 Yes
13 A P C Loft - TX 17222-AU17-APC BB H 1 08:18:32.10 6.723 00:02:51 Yes
14 Eastern Pearl Loft - VA 0205-AU17-EPL 🈚️量 205 BB H 1 08:18:55.80 6.689 00:03:15 Yes
15 Goshentown Lofts - TN 3417-AU17-VITA BB H 2 08:20:02.00 6.597 00:04:21 Yes
16 D B Loft - CA 4139-AU17-JEDD '' HOME ALONE'' BB H 1 08:20:10.50 6.586 00:04:29 Yes
17 Stone Loft - NC 1251-AU17-ACC BBWF H 1 08:20:13.70 6.581 00:04:33 Yes
18 Kim Wong - VT 10861-AU17-ARPU BB H 1 08:20:14.90 6.580 00:04:33 Yes
19 Gypsy Lofts - CA 5185-AU17-AA M.G. RC H 1 08:20:18.60 6.575 00:04:37 Yes
20 Racing Pigeon Mall - WA 0700-AU17-RPM BC H 1 08:20:19.80 6.573 00:04:38 Yes
21 Ron Brooks - AR 1739-AU17-REB BC H 1 08:20:24.40 6.567 00:04:43 Yes
22 V Lin - IA 0376-AU17-VLIN BB H 1 08:20:43.00 6.541 00:05:02 Yes
23 Avalos Loft - CA 0144-AU17-TULE BB H 1 08:20:50.00 6.532 00:05:09 Yes
24 Genesis Syndicate Loft - AZ 0362-AU17-GEN DC H 2 08:21:05.30 6.511 00:05:24 Yes
25 Barrett Family Loft - IL 0003-AU17-BARR BC H 1 08:21:08.60 6.507 00:05:27 Yes
26 Blue - Face - CA 1110-AU17-FVC BC H 1 08:21:27.10 6.482 00:05:46 Yes
27 Jack's Loft - CA 4381-AU17-FOYS Ganus Wannabe GRIZ H 1 08:21:36.50 6.470 00:05:55 Yes
28 Louis Foy - CA 1049-AU17-WSJ DC H 1 08:21:37.00 6.469 00:05:56 Yes
29 Avalos Loft - CA 0145-AU17-TULE BB H 2 08:22:15.70 6.419 00:06:34 Yes
30 Eastern Pearl Loft - VA 0225-AU17-EPL 🈚️量 225 BC H 2 08:23:02.10 6.359 00:07:21 Lost
31 Ceyx Loft - CA 0851-AU17-CEYX BC H 1 08:24:40.10 6.236 00:08:59 Lost
32 Bieche-Stevenson - CA 7240-AU17-BIE BB H 1 08:26:18.60 6.117 00:10:38 Yes
33 Gypsy Lofts - CA 5181-AU17-AA Geordie BB H 2 08:26:21.30 6.114 00:10:40 Yes
34 Tom O`Brien - CA 70809-AU17-SOC BB H 1 08:26:24.80 6.110 00:10:44 Yes
34 Huan Qiu Zhang - NC 1825-IF17-JNC BC H 1 08:26:25.30 6.110 00:10:44 Yes
36 Lopez/ Saenz - CA 0849-AU17-TCH BB H 1 08:27:13.80 6.053 00:11:32 Yes
37 G & L Loft - OR 0861-AU17-FHI SLTS H 1 08:27:33.50 6.030 00:11:52 Yes
38 Bob & Susie - CA 0861-AU17-AUB BB H 1 08:27:37.10 6.026 00:11:56 Yes
39 A P C Loft - TX 17169-AU17-APC BB H 2 08:27:50.10 6.011 00:12:09 Yes
40 Joe Sanford - CA 4399-AU17-JEDD BCWF H 2 08:27:50.80 6.010 00:12:10 Yes
41 Sugaronni Loft - CA 7068-AU17-FOYS BB H 1 08:28:00.20 6.000 00:12:19 Lost
42 Blue - Face - CA 1122-AU17-FVC BC H 2 08:28:01.80 5.998 00:12:20 Yes
43 Kay Eastwood - CA 19119-AU17-AA BB H 1 08:28:09.20 5.990 00:12:28 Yes
44 Perfection Loft - KS 3723-AU17-AA BB H 1 08:29:13.20 5.918 00:13:32 Yes
45 Gypsy Lofts - CA 5182-AU17-AA Sydney BB H 3 08:29:18.30 5.912 00:13:37 Yes
46 Dennis Bisnett - CA 0903-AU17-ML BC H 1 08:29:27.80 5.902 00:13:46 Yes
47 Silicon Valley Syndicates - CA 1752-AU17-WSJ DC H 1 08:29:51.80 5.876 00:14:10 Yes
48 B S Lofts - CA 0212-AU17-BSL Koni BC H 1 08:29:59.00 5.868 00:14:17 Yes
49 Lopez/ Saenz - CA 0833-AU17-TCH DC H 2 08:30:04.00 5.862 00:14:23 Yes
49 Louis Foy - CA 1048-AU17-WSJ GRIZ H 2 08:30:04.70 5.862 00:14:23 Yes
51 D B Loft - CA 4151-AU17-JEDD '' MAMAS MINK'' BB H 2 08:30:06.70 5.859 00:14:26 Yes
52 Cloux Loft - CO 8125-AU17-FH BB H 1 08:30:08.30 5.858 00:14:27 Yes
53 Flying W - CA 0557-AU17-AUB BC H 2 08:30:09.30 5.857 00:14:28 Yes
54 Tom O`Brien - CA 70802-AU17-SOC BB H 2 08:30:11.20 5.855 00:14:29 Yes
55 Eastern Pearl Loft - VA 0221-AU17-EPL 🈚️量 221 BB H 3 08:30:23.80 5.841 00:14:42 Yes
56 Kay Eastwood - CA 19023-AU17-AA BB H 2 08:30:29.00 5.835 00:14:48 Lost
57 Sierra Ranch - CA 0718-AU17-SR BB H 1 08:30:44.40 5.819 00:15:03 Yes
58 H & H Flying Circus - CA 0712-AU17-ML BB H 1 08:30:45.30 5.818 00:15:04 Lost
59 California Breeders Syndicate - CA 19030-AU17-AA BC H 1 08:30:45.90 5.817 00:15:05 Yes
60 Jerry Gatto - CA 1100-AU17-HANG DCSP H 1 08:31:05.20 5.797 00:15:24 Yes
61 Skychargers - CA 0186-AU17-SD DC H 3 08:31:37.00 5.763 00:15:56 Yes
62 Mike Belus - CA 6734-AU17-JEDD BB H 1 08:32:11.00 5.728 00:16:29 Yes
63 Lopez/ Saenz - CA 0856-AU17-TCH BC H 3 08:32:32.90 5.705 00:16:52 Yes
64 Genesis Syndicate Loft - AZ 0355-AU17-GEN PIED H 3 08:32:40.00 5.698 00:16:59 Yes
65 Perfection Loft & Torres Loft - KS 3719-AU17-AA BB H 1 08:33:12.30 5.665 00:17:31 Yes
66 Tou Loft - TN 0019-AU17-TOU BB H 1 08:35:08.00 5.550 00:19:27 Yes
67 Al Shulman - CA 0214-AU17-WSJ BC H 1 08:35:09.00 5.549 00:19:28 Yes
68 Dream Team - VT 0323-AU17-JCZL 6807 x 27873 BB H 1 08:36:32.60 5.469 00:20:51 Lost
69 Sierra Ranch - CA 0767-AU17-SR BB H 2 08:36:33.80 5.468 00:20:52 Yes
70 Al Shulman - CA 0246-AU17-WSJ BC H 2 08:37:42.30 5.404 00:22:01 Yes
71 Delmon And Oregel Lofty - NV 2496-AU17-WSJ BB H 1 08:37:44.70 5.402 00:22:03 Yes
72 Smith R P L - UT 3080-AU17-SRPL BC H 1 08:37:52.60 5.395 00:22:11 Yes
73 Refried Dreams - AZ 0471-AU17-PSC BB H 1 08:38:15.00 5.374 00:22:34 Yes
74 Tou Loft - TN 0106-AU17-TOU PIED H 2 08:38:19.90 5.370 00:22:38 Yes
75 John Partridge - CA 0528-AU17-PASO MLY H 1 08:38:23.20 5.367 00:22:41 Yes
76 Dream Team - VT 0542-AU17-JCZL BC H 2 08:38:36.00 5.355 00:22:55 Yes
77 Bieche-Stevenson - CA 7556-AU17-BIE SLT H 2 08:38:37.80 5.353 00:22:57 Yes
78 H & H Flying Circus - CA 0714-AU17-ML BCSP H 2 08:38:40.00 5.351 00:22:59 Lost
79 Cloux Loft - CO 8135-AU17-FH BCWF H 2 08:38:57.20 5.336 00:23:16 Yes
80 Dennis Bisnett - CA 0901-AU17-ML BB H 2 08:39:04.00 5.330 00:23:22 Yes
81 Lito Maniego Loft - CA 13707-AU17-ARPU BC H 1 08:39:13.50 5.321 00:23:32 Yes
82 Plymouth Peak Pro Challenge - UT 7123-AU17-GS BBWF H 1 08:39:17.70 5.317 00:23:37 Yes
83 V Lin - IA 1878-AU17-VITA BC H 2 08:39:20.90 5.315 00:23:39 Yes
84 A P C Loft - TX 17197-AU17-APC BB H 3 08:39:37.60 5.300 00:23:56 Yes
85 Haack Loft - CA 2736-AU17-JEDD DC H 1 08:40:05.30 5.275 00:24:24 Yes
86 Fleet Washington - DC 1728-AU17-FLET BC H 1 08:40:08.20 5.273 00:24:27 Yes
87 California Breeders Syndicate - CA 1168-AU17-AA Brutus BC H 2 08:40:23.60 5.259 00:24:43 Yes
88 Hayloft - CA 7296-AU17-GSF BB H 1 08:40:39.20 5.246 00:24:58 Yes
89 Thunder Birds Breeding Loft - TX 19807-AU17-ARPU Bourges46 BB C 1 08:40:47.00 5.239 00:25:06 Yes
90 Nanez Family Lofts - WI 4296-AU17-NFL BBWF H 1 08:40:51.20 5.235 00:25:10 Yes
91 Fleet Washington - DC 1775-AU17-FLET BC H 2 08:41:12.40 5.217 00:25:31 Yes
92 Jactions Loft - CA 15969-AU17-AA BB H 2 08:41:14.90 5.215 00:25:33 Yes
93 Haack Loft - CA 2758-AU17-JEDD BB H 2 08:41:18.30 5.212 00:25:37 Yes
93 Lopez/ Saenz - CA 0841-AU17-TCH BB H 4 08:41:18.60 5.212 00:25:37 Yes
95 De La O-Siino - CA 4049-AU17-COOK BC H 1 08:41:21.20 5.209 00:25:40 Yes
95 Flying W - CA 0511-AU17-AUB BB H 3 08:41:21.90 5.209 00:25:40 Yes
97 Genesis Syndicate Loft - AZ 0328-AU17-GEN BB H 4 08:41:23.00 5.208 00:25:42 Yes
98 Kay Eastwood - CA 19026-AU17-AA BB H 3 08:41:24.00 5.207 00:25:43 Lost
99 John Hedderson - CA 7100-AU17-FSC 1080996x13938 BB H 1 08:41:26.30 5.205 00:25:45 Yes
99 B S Lofts - CA 0229-AU17-BSL McClaus BC H 2 08:41:26.70 5.205 00:25:45 Yes

There are 280 bird records

Note: These Race Results are unofficial and subject to change until verified by the Race Committee and declared final.